Погода Пушкинские Горы

Погода Пушкинские Горы : погода сейчас, прогноз погоды и архив. Всё, что Вы хотите узнать о погоде Пушкинские Горы!

Хотите узнать прогноз погоды Пушкинские Горы? Тогда Вам сюда: Погода Пушкинские Горы

Поиск расширенной информации на нашем сайте:

Полезная информация:

Другие новости

Новости СМИ2

Главная страница сайта

Новости сайта

03.07.2017

Напоминаем, что на нашем специализированном сайте Метеоцентр.Азия вы можете получить высокодетализированные автоматические прогнозы погоды по пунктам России, СНГ и мира в авиационном формате (включающие направление и скорость ветра, видимость, явления погоды, количество и форму облачности, нижнюю и верхнюю границу облачности).

Рекомендуем:

Погода Пушкинские Горы - сегодня

Время (UTC), дата Ветер
(°,м/с) 
Видим.   Явления Облачность Т
(°С)
Тd
(°С)
f(%) Тe
(°С)
Pmin
(гПа)
dP
(гПа)
Po
(мм)
O2
(г/м3)
Тmin Tmax R s Состояние
почвы
21 18.05.19 090 (В) 20000 м    9/0 верхняя 
[Ci fib]
+17 +5 45 +17  1018.8  0.8  755  286           
00 19.05.19 090 (В) 20000 м    9/0 верхняя 
[Ci fib]
+14.7 +4.6 51 +15  1018.5  -0.4  755  288           
03 19.05.19 330 (СЗ) 20000 м    9/0 верхняя 
[Ci fib]
+9.1 +5.9 80 +10  1019.4  0.6  755  293  +9         
06 19.05.19 110 (В) 20000 м    4/0 верхняя 
[Ci fib]
+19.4 +7 44 +20  1018.9  755  283  +9         
09 19.05.19 140 (ЮВ) 20000 м    3/0 верхняя 
[Ci fib]
+23.3 +8.4 39 +23  1018.4  -0.4  755  279           
12 19.05.19 100 (В) 20000 м    8/0 верхняя 
[Ci fib]
+25.6 +6.8 30 +26  1017.5  -0.8  754  277           
15 19.05.19 100 (В) 20000 м    9/0 верхняя 
[Ci fib]
+25.1 +6.7 31 +25  1017  -0.5  754  277           
18 19.05.19 100 (В) 20000 м    8/0 верхняя 
[Ci fib]
+21.4 +6.4 38 +21  1016.8  -0.3  754  281    +25.7       
21 19.05.19 130 (ЮВ) 20000 м    9/0 верхняя 
[Ci fib]
+18.6 +6.2 44 +19  1017.6  0.6  754  283           
00 20.05.19 140 (ЮВ) 20000 м    6/0 верхняя 
[Ci fib]
+16 +6.8 54 +17  1018.2  0.5  754  286           
03 20.05.19 130 (ЮВ) 20000 м    8/0 верхняя 
[Ci fib]
+15.6 +7.4 58 +16  1018.4  0.2  755  286  +14.8         
06 20.05.19 170 (Ю) 20000 м    3/0 верхняя 
[Ci fib]
+20.4 +9.6 50 +21  1018.7  0.5  755  281  +14.8         
09 20.05.19 160 (Ю) 20000 м    3/3 1000 м 
[Cu hum]
+25.1 +8.6 35 +25  1018.1  -0.4  755  277           
12 20.05.19 190 (Ю) 20000 м    1/1 1000 м 
[Cu hum]
+26.2 +7.3 30 +26  1017.2  -0.9  754  276           
15 20.05.19 180 (Ю) 20000 м    4/0 верхняя 
[Cc]
+26 +4.1 24 +26  1016.1  -1  753  276           
18 20.05.19 130 (ЮВ) 20000 м    3/0 средняя, верхняя 
[Ac cuf|Ci fib]
+20.4 +7.5 43 +20  1015.8  -0.6  753  281    +26.8       
21 20.05.19 140 (ЮВ) 20000 м    4/0 средняя, верхняя 
[Ac cuf|Ci fib]
+18.2 +6.8 47 +19  1016.3  0.4  753  283           
00 21.05.19 150 (ЮВ) 20000 м    9/0 верхняя 
[Cc]
+17.1 +7.3 52 +18  1016.1  -0.2  753  284           
03 21.05.19 150 (ЮВ) 20000 м    9/1 600 м средняя, верхняя 
[Cu med, cong|Ac cuf|Ci sp]
+15.6 +7.9 60 +16  1015.8  -0.4  753  286  +15.2         
06 21.05.19 150 (ЮВ) 20000 м    9/0 кучево-дожд., средняя, верхняя 
[Cb cap|Ac trans|Ci fib]
+19.3 +10.2 56 +21  1014.9  -0.7  752  281  +15.2         
09 21.05.19 170 (Ю) 20000 м    6/0 верхняя 
[Ci fib]
+25.3 +10.8 40 +27  1014  -0.6  752  275           
12 21.05.19 210 (ЮЗ) 20000 м    8/0 верхняя 
[Cu hum|Ci fib]
+27 +8.8 32 +27  1012.8  -1.2  751  274           
15 21.05.19 170 (Ю) 20000 м    9/4 600 м кучево-дожд., верхняя 
[Cb cap|Ci fib]
+25.7 +8.6 34 +26  1011.6  -1.2  750  275           
18 21.05.19 130 (ЮВ) 20000 м    8/1 1000 м средняя, верхняя 
[Cu hum|Ac trans|Ci fib]
+21.3 +9.8 48 +22  1011.1  -0.7  749  278    +27.6       
21 21.05.19 140 (ЮВ) 20000 м    6/0 верхняя 
[Ci fib]
+18.2 +8.7 54 +19  1011.3  0.1  749  282           
Время (UTC), дата Ветер
(°,м/с) 
Видим.   Явления Облачность Т
(°С)
Тd
(°С)
f(%) Тe
(°С)
Pmin
(гПа)
dP
(гПа)
Po
(мм)
O2
(г/м3)
Тmin Tmax R s Состояние
почвы

Для получения пояснительной информации подведите курсор к названию столбца.

ПОГОДА Пушкинские Горы - архив

Всё, что Вы хотите узнать о погоде Пушкинские Горы - удобно и подробно!

Выберите нужную дату (начиная с 1 января 2018* года) и нажмите кнопку "Найти".
Будут отображены архивные сводки погоды по пункту Пушкинские Горы, начиная с указанной даты.


Отображать данные в формате CSV (для использования в таблицах Excel)


Внимание! Наш архив погоды предназначен исключительно для личного некоммерческого использования в познавательных целях. Если Вам необходимы официальные справки о состоянии погоды (для производственных, юридических, коммерческих и т.п. целей), обращайтесь в органы Росгидромета.

*Примечание: данная дата относится к архиву по метеостанциям СССР (Россия, СНГ, Балтия).
Архив по метеостанциям Зарубежной Европы и Азии (кроме Китая) хранится 10 дней, по другим регионам земного шара (Китай, Африка, Америка, Австралия, Океания) - 1 день.

Пушкинские Горы - район местоположения метеостанции


Название, широта, долгота, высота метеостанции:
Пушкинские Горы 57°ш. 28.9°д. 108 м над ур. моря [Российская Федерация]

Дополнительная информация

В oтличие oт бoльшинства пoгoдных сайтoв мы публикуем пoдрoбную метеoинфoрмацию в детальнoм прoфессиoнальнoм фoрмате.

Характеристики температуры и влажнoсти вoздуха измеряются на высoте 2 м в тени вдали oт зданий и деревьев.
Скoрoсть ветра измеряется на высoте 10 м (на урoвне рoста челoвека скoрoсть ветра ниже в 1.5-2 раза). Если метеoстанция нахoдится в гoрoде или в лесу, тo скoрoсть ветра занижена на 2-4 м/с пo сравнению с oткрытым местoм. Скoрoсть ветра над акватoриями крупных рек и oзёр, а также на вершинах хoлмoв на 2-5 м/с выше, чем в oбычных услoвиях.
Атмoсфернoе давление в разных тoчках местнoсти мoжет значительнo oтличаться oт давления на метеoстанции, в зависимoсти oт услoвий рельефа (при пoдъёме на 10 м давление пoнижается примернo на 1 мм рт.ст.).